�������l�o���
Date,Time,MP-1(��Sv/h),MP-2(��Sv/h),MP-3(��Sv/h),MP-4(��Sv/h),MP-5(��Sv/h),MP-6(��Sv/h),MP-7(��Sv/h),MP-8(��Sv/h),����,����(m/s),���J
2019/03/10,00:00,0.760,1.106,0.768,1.412,1.022,0.437,0.773,0.732,�쐼,1.7,��
2019/03/10,00:10,0.759,1.110,0.768,1.411,1.022,0.435,0.772,0.733,��,2.3,��
2019/03/10,00:20,0.758,1.109,0.766,1.409,1.023,0.437,0.772,0.733,��,3.1,��
2019/03/10,00:30,0.758,1.109,0.767,1.409,1.023,0.437,0.772,0.733,��,3.0,��
2019/03/10,00:40,0.758,1.112,0.767,1.411,1.023,0.436,0.770,0.733,��,2.3,��
2019/03/10,00:50,0.761,1.110,0.767,1.412,1.022,0.437,0.773,0.733,�쐼,0.9,��
2019/03/10,01:00,0.760,1.109,0.769,1.411,1.022,0.437,0.772,0.731,�쐼,0.9,��
2019/03/10,01:10,0.761,1.110,0.768,1.413,1.024,0.435,0.771,0.734,��쐼,2.0,��
2019/03/10,01:20,0.759,1.108,0.769,1.412,1.023,0.436,0.772,0.734,�쐼,2.3,��
2019/03/10,01:30,0.759,1.111,0.766,1.411,1.023,0.437,0.772,0.733,��,3.9,��
2019/03/10,01:40,0.760,1.108,0.767,1.412,1.023,0.436,0.773,0.732,��쐼,2.8,��
2019/03/10,01:50,0.760,1.109,0.768,1.411,1.025,0.437,0.773,0.734,��쐼,2.6,��
2019/03/10,02:00,0.760,1.110,0.770,1.408,1.021,0.437,0.771,0.733,��쐼,3.2,��
2019/03/10,02:10,0.760,1.108,0.767,1.413,1.021,0.437,0.772,0.733,�쐼,2.3,��
2019/03/10,02:20,0.759,1.111,0.766,1.413,1.023,0.435,0.772,0.733,��쐼,2.9,��
2019/03/10,02:30,0.759,1.108,0.767,1.412,1.022,0.437,0.773,0.733,��쐼,3.5,��
2019/03/10,02:40,0.760,1.109,0.766,1.409,1.022,0.437,0.769,0.731,�쐼,3.1,��
2019/03/10,02:50,0.758,1.109,0.768,1.411,1.022,0.436,0.772,0.733,�쐼,2.8,��
2019/03/10,03:00,0.760,1.108,0.768,1.412,1.024,0.437,0.773,0.734,�쐼,2.5,��
2019/03/10,03:10,0.759,1.109,0.767,1.411,1.024,0.436,0.771,0.732,���쐼,2.8,��
2019/03/10,03:20,0.760,1.111,0.770,1.411,1.021,0.435,0.771,0.732,���쐼,3.2,��
2019/03/10,03:30,0.759,1.107,0.769,1.410,1.022,0.436,0.772,0.734,���k��,5.0,��
2019/03/10,03:40,0.758,1.110,0.767,1.409,1.022,0.434,0.773,0.732,���k��,7.9,��
2019/03/10,03:50,0.758,1.109,0.767,1.411,1.023,0.437,0.771,0.732,���k��,11.0,��
2019/03/10,04:00,0.758,1.109,0.768,1.412,1.023,0.436,0.775,0.733,��,11.1,��
2019/03/10,04:10,0.759,1.111,0.768,1.414,1.025,0.436,0.775,0.734,��,10.5,��
2019/03/10,04:20,0.758,1.113,0.769,1.411,1.023,0.437,0.772,0.731,���쐼,8.6,��
2019/03/10,04:30,0.760,1.110,0.769,1.415,1.022,0.438,0.774,0.732,���쐼,7.0,��
2019/03/10,04:40,0.761,1.109,0.768,1.412,1.023,0.436,0.774,0.732,���쐼,5.8,��
2019/03/10,04:50,0.761,1.110,0.768,1.414,1.023,0.439,0.774,0.734,���쐼,5.5,��
2019/03/10,05:00,0.759,1.110,0.768,1.414,1.022,0.437,0.774,0.734,���쐼,4.4,��
2019/03/10,05:10,0.761,1.111,0.769,1.415,1.024,0.436,0.773,0.734,��,4.3,��
2019/03/10,05:20,0.761,1.112,0.767,1.414,1.024,0.436,0.772,0.734,��,5.7,��
2019/03/10,05:30,0.759,1.112,0.770,1.413,1.023,0.436,0.773,0.732,��,5.3,��
2019/03/10,05:40,0.757,1.112,0.769,1.412,1.022,0.436,0.774,0.734,��,5.5,��
2019/03/10,05:50,0.758,1.108,0.769,1.414,1.020,0.436,0.773,0.734,��,3.1,��
2019/03/10,06:00,0.759,1.113,0.770,1.411,1.021,0.435,0.773,0.734,���쓌,1.4,��
2019/03/10,06:10,0.759,1.110,0.768,1.415,1.023,0.436,0.773,0.733,�쓌,3.1,��
2019/03/10,06:20,0.759,1.109,0.769,1.414,1.022,0.436,0.772,0.734,�쐼,1.4,��
2019/03/10,06:30,0.761,1.108,0.768,1.414,1.023,0.435,0.774,0.733,��,2.3,��
2019/03/10,06:40,0.760,1.111,0.769,1.414,1.024,0.437,0.774,0.733,��쐼,2.2,��
2019/03/10,06:50,0.759,1.110,0.767,1.410,1.023,0.437,0.773,0.732,��쓌,3.1,��
2019/03/10,07:00,0.760,1.107,0.769,1.413,1.022,0.438,0.772,0.733,��,2.5,��
2019/03/10,07:10,0.761,1.111,0.767,1.413,1.023,0.435,0.772,0.733,��쓌,3.6,��
2019/03/10,07:20,0.758,1.110,0.768,1.416,1.024,0.437,0.773,0.735,��쓌,3.1,��
2019/03/10,07:30,0.760,1.112,0.768,1.416,1.022,0.437,0.774,0.733,��쓌,2.2,��
2019/03/10,07:40,0.759,1.113,0.770,1.414,1.024,0.438,0.775,0.734,��쓌,2.6,��
2019/03/10,07:50,0.759,1.111,0.768,1.414,1.024,0.437,0.775,0.731,��쓌,3.9,��
2019/03/10,08:00,0.760,1.115,0.769,1.415,1.024,0.437,0.775,0.734,�쓌,3.3,��
2019/03/10,08:10,0.761,1.113,0.770,1.414,1.025,0.438,0.774,0.732,��쓌,2.8,��
2019/03/10,08:20,0.760,1.113,0.770,1.416,1.025,0.437,0.775,0.734,��쓌,1.2,��
2019/03/10,08:30,0.762,1.113,0.769,1.415,1.029,0.437,0.773,0.733,��쓌,1.5,��
2019/03/10,08:40,0.761,1.111,0.768,1.417,1.024,0.438,0.772,0.733,��쓌,1.5,��
2019/03/10,08:50,0.759,1.112,0.770,1.417,1.026,0.436,0.773,0.733,��쓌,1.7,��
2019/03/10,09:00,0.763,1.110,0.771,1.415,1.026,0.438,0.773,0.736,��쓌,2.0,��
2019/03/10,09:10,0.760,1.112,0.770,1.414,1.025,0.438,0.773,0.737,��쓌,1.9,��
2019/03/10,09:20,0.761,1.112,0.770,1.415,1.027,0.437,0.773,0.735,���쐼,1.7,��
2019/03/10,09:30,0.763,1.111,0.771,1.418,1.028,0.439,0.774,0.735,��,2.9,��
2019/03/10,09:40,0.760,1.110,0.771,1.417,1.025,0.438,0.772,0.734,��쓌,1.2,��
2019/03/10,09:50,0.763,1.114,0.771,1.416,1.026,0.439,0.775,0.736,�쓌,1.5,��
2019/03/10,10:00,0.760,1.113,0.771,1.416,1.025,0.438,0.774,0.734,��쓌,2.8,��
2019/03/10,10:10,0.761,1.113,0.771,1.416,1.026,0.438,0.773,0.732,��쓌,3.2,��
2019/03/10,10:20,0.763,1.111,0.771,1.417,1.025,0.437,0.774,0.732,�쓌,3.4,��
2019/03/10,10:30,0.761,1.114,0.770,1.416,1.024,0.436,0.772,0.731,��쓌,1.9,��
2019/03/10,10:40,0.761,1.112,0.771,1.417,1.027,0.436,0.773,0.731,�쓌,4.9,��
2019/03/10,10:50,0.761,1.113,0.770,1.417,1.027,0.436,0.773,0.732,��쓌,4.5,��
2019/03/10,11:00,0.762,1.116,0.771,1.419,1.023,0.436,0.772,0.732,��쓌,5.9,��
2019/03/10,11:10,0.761,1.118,0.772,1.417,1.028,0.437,0.774,0.732,��쓌,6.3,��
2019/03/10,11:20,0.761,1.116,0.771,1.418,1.024,0.437,0.772,0.733,��쓌,6.8,��
2019/03/10,11:30,0.764,1.117,0.773,1.418,1.029,0.436,0.775,0.733,�쓌,6.4,��
2019/03/10,11:40,0.760,1.118,0.772,1.418,1.028,0.437,0.775,0.732,��쓌,5.6,��
2019/03/10,11:50,0.763,1.117,0.771,1.418,1.027,0.437,0.774,0.731,��쓌,7.7,��
2019/03/10,12:00,0.763,1.116,0.772,1.419,1.029,0.438,0.774,0.732,��쓌,7.9,��
2019/03/10,12:10,0.762,1.120,0.770,1.419,1.029,0.439,0.774,0.733,��쓌,8.6,��
2019/03/10,12:20,0.763,1.119,0.769,1.419,1.029,0.438,0.774,0.733,��쓌,7.9,��
2019/03/10,12:30,0.762,1.119,0.771,1.419,1.029,0.440,0.774,0.734,��쓌,9.4,��
2019/03/10,12:40,0.762,1.117,0.773,1.421,1.029,0.439,0.776,0.732,��쓌,8.6,��
2019/03/10,12:50,0.762,1.120,0.773,1.420,1.031,0.439,0.775,0.732,��쓌,8.1,��
2019/03/10,13:00,0.762,1.120,0.771,1.421,1.027,0.439,0.776,0.733,��쓌,7.8,��
2019/03/10,13:10,0.763,1.121,0.771,1.422,1.031,0.441,0.776,0.733,��쓌,7.8,��
2019/03/10,13:20,0.763,1.121,0.771,1.420,1.029,0.440,0.774,0.734,��쓌,7.9,��
2019/03/10,13:30,0.764,1.123,0.771,1.422,1.031,0.442,0.774,0.731,��쓌,7.9,��
2019/03/10,13:40,0.762,1.123,0.772,1.420,1.031,0.443,0.775,0.732,��쓌,8.1,��
2019/03/10,13:50,0.765,1.120,0.771,1.420,1.031,0.440,0.776,0.733,��쓌,8.4,��
2019/03/10,14:00,0.762,1.123,0.771,1.421,1.030,0.440,0.776,0.732,��쓌,8.0,��
2019/03/10,14:10,0.765,1.122,0.772,1.421,1.031,0.438,0.776,0.734,��쓌,8.4,��
2019/03/10,14:20,0.765,1.121,0.771,1.422,1.034,0.440,0.774,0.733,��쓌,7.8,��
2019/03/10,14:30,0.765,1.121,0.772,1.422,1.031,0.441,0.777,0.732,��쓌,7.1,��
2019/03/10,14:40,0.764,1.117,0.771,1.423,1.033,0.441,0.776,0.734,��쓌,7.6,��
2019/03/10,14:50,0.765,1.121,0.773,1.423,1.031,0.440,0.774,0.732,��쓌,8.1,��
2019/03/10,15:00,0.762,1.121,0.773,1.422,1.030,0.440,0.774,0.734,��쓌,7.9,��
2019/03/10,15:10,0.762,1.121,0.772,1.422,1.031,0.440,0.775,0.731,��쓌,6.7,��
2019/03/10,15:20,0.764,1.122,0.772,1.424,1.032,0.438,0.773,0.733,��쓌,8.1,��
2019/03/10,15:30,0.762,1.120,0.771,1.422,1.033,0.443,0.774,0.733,��쓌,7.7,��
2019/03/10,15:40,0.764,1.123,0.772,1.425,1.033,0.440,0.775,0.733,��쓌,8.7,��
2019/03/10,15:50,0.764,1.120,0.773,1.421,1.034,0.439,0.774,0.733,��쓌,9.0,��
2019/03/10,16:00,0.762,1.122,0.773,1.423,1.032,0.442,0.774,0.733,��쓌,8.7,��
2019/03/10,16:10,0.766,1.123,0.772,1.421,1.033,0.439,0.773,0.734,��쓌,9.9,��
2019/03/10,16:20,0.765,1.124,0.773,1.422,1.029,0.443,0.774,0.733,��쓌,9.0,��
2019/03/10,16:30,0.768,1.121,0.774,1.425,1.033,0.441,0.773,0.734,��쓌,9.4,��
2019/03/10,16:40,0.768,1.121,0.774,1.421,1.033,0.441,0.774,0.735,��쓌,8.8,��
2019/03/10,16:50,0.768,1.123,0.774,1.423,1.032,0.442,0.775,0.735,��쓌,7.8,��
2019/03/10,17:00,0.767,1.124,0.775,1.423,1.031,0.442,0.775,0.735,��,8.5,��
2019/03/10,17:10,0.767,1.125,0.774,1.422,1.033,0.442,0.774,0.736,��쓌,7.3,��
2019/03/10,17:20,0.768,1.127,0.773,1.424,1.034,0.441,0.774,0.737,��,7.3,��
2019/03/10,17:30,0.767,1.127,0.773,1.423,1.034,0.442,0.775,0.736,��,7.1,��
2019/03/10,17:40,0.768,1.125,0.774,1.422,1.033,0.440,0.775,0.735,��,6.6,��
2019/03/10,17:50,0.765,1.128,0.772,1.422,1.037,0.442,0.775,0.736,��,5.9,��
2019/03/10,18:00,0.766,1.127,0.773,1.420,1.035,0.441,0.775,0.736,��,5.4,��
2019/03/10,18:10,0.767,1.126,0.776,1.422,1.036,0.442,0.776,0.734,��,5.7,��
2019/03/10,18:20,0.767,1.123,0.772,1.419,1.034,0.440,0.774,0.736,��,5.1,��
2019/03/10,18:30,0.766,1.125,0.775,1.422,1.037,0.441,0.775,0.737,��,4.6,��
2019/03/10,18:40,0.767,1.125,0.776,1.425,1.034,0.442,0.775,0.736,��,4.9,��
2019/03/10,18:50,0.765,1.126,0.774,1.424,1.036,0.440,0.777,0.735,��,3.7,��
2019/03/10,19:00,0.767,1.124,0.774,1.422,1.033,0.441,0.776,0.736,��,3.7,��
2019/03/10,19:10,0.765,1.125,0.772,1.421,1.034,0.441,0.775,0.736,��,2.0,��
2019/03/10,19:20,0.767,1.124,0.774,1.422,1.037,0.440,0.775,0.736,��쓌,1.5,��
2019/03/10,19:30,0.766,1.125,0.771,1.421,1.034,0.442,0.776,0.737,��쓌,2.0,��
2019/03/10,19:40,0.767,1.123,0.774,1.422,1.036,0.442,0.776,0.736,�쓌,1.9,��
2019/03/10,19:50,0.764,1.125,0.774,1.424,1.034,0.440,0.775,0.737,�쓌,1.2,��
2019/03/10,20:00,0.767,1.125,0.773,1.423,1.035,0.440,0.777,0.735,�쓌,1.5,��
2019/03/10,20:10,0.766,1.122,0.773,1.421,1.035,0.439,0.776,0.735,��,1.7,��
2019/03/10,20:20,0.766,1.124,0.773,1.424,1.035,0.438,0.777,0.735,���k��,1.7,��
2019/03/10,20:30,0.767,1.122,0.775,1.421,1.035,0.442,0.775,0.736,���k��,1.7,��
2019/03/10,20:40,0.767,1.124,0.774,1.422,1.033,0.439,0.777,0.735,��,1.7,��
2019/03/10,20:50,0.765,1.124,0.772,1.422,1.036,0.440,0.775,0.734,��,1.7,��
2019/03/10,21:00,0.767,1.122,0.774,1.424,1.035,0.440,0.774,0.736,�k��,2.3,��
2019/03/10,21:10,0.766,1.124,0.775,1.420,1.037,0.439,0.774,0.738,�k��,1.1,��
2019/03/10,21:20,0.765,1.122,0.774,1.422,1.033,0.440,0.775,0.734,�k��,1.2,��
2019/03/10,21:30,0.767,1.123,0.774,1.422,1.035,0.441,0.776,0.736,���k��,1.7,��
2019/03/10,21:40,0.765,1.124,0.773,1.422,1.033,0.438,0.775,0.736,���k��,2.3,��
2019/03/10,21:50,0.765,1.123,0.773,1.422,1.035,0.440,0.776,0.735,�k��,2.6,��
2019/03/10,22:00,0.765,1.123,0.773,1.424,1.033,0.440,0.777,0.735,�k�k��,2.0,��
2019/03/10,22:10,0.767,1.124,0.775,1.424,1.034,0.440,0.776,0.738,�k�k��,5.9,��
2019/03/10,22:20,0.766,1.124,0.773,1.423,1.034,0.439,0.775,0.737,�k,6.8,��
2019/03/10,22:30,0.765,1.127,0.774,1.423,1.035,0.439,0.776,0.735,�k,6.4,��
2019/03/10,22:40,0.766,1.121,0.774,1.421,1.035,0.438,0.775,0.736,�k,6.4,��
2019/03/10,22:50,0.768,1.123,0.773,1.424,1.036,0.439,0.775,0.736,�k,7.2,��
2019/03/10,23:00,0.764,1.123,0.773,1.420,1.035,0.439,0.773,0.736,�k�k��,6.7,��
2019/03/10,23:10,0.766,1.121,0.771,1.423,1.036,0.440,0.776,0.736,�k�k��,7.8,��
2019/03/10,23:20,0.766,1.121,0.773,1.422,1.037,0.437,0.775,0.736,�k,7.8,�L
2019/03/10,23:30,0.766,1.122,0.774,1.420,1.036,0.438,0.776,0.735,�k�k��,7.3,�L
2019/03/10,23:40,0.765,1.123,0.775,1.422,1.034,0.439,0.773,0.736,�k�k��,7.6,�L
2019/03/10,23:50,0.766,1.120,0.773,1.420,1.034,0.438,0.774,0.737,�k�k��,7.6,�L
